Regional Weather Roundup
Issued by NWS Newport/Morehead, NC

Current Version | Previous Version | Graphics & Text | Print | Product List | Glossary Off
Versions: 1 2 3 4 5 6 7 8 9 10 11 12 13 14 15 16 17 18 19 20 21 22 23 24 25 26 27 28 29 30 31 32 33 34 35 36 37 38 39 40 41 42 43 44 45 46 47 48 49 50

000
ASUS42 KMHX 300225
RWRMHX
WEATHER ROUNDUP FOR EASTERN NORTH CAROLINA
NATIONAL WEATHER SERVICE NEWPORT/MOREHEAD CITY NC
1000 PM EDT FRI JUL 29 2016

NOTE: "FAIR" INDICATES FEW OR NO CLOUDS BELOW 12,000 FEET
WITH NO SIGNIFICANT WEATHER AND/OR OBSTRUCTIONS TO VISIBILITY

NCZ015>017-031-032-045>047-102-103-300300-
NORTH COAST

CITY           SKY/WX    TMP DP  RH WIND       PRES   REMARKS
EDENTON        CLEAR     80  74  82 CALM      29.95R
ELIZABETH CITY MOCLDY    81  74  79 E6        29.94R
KITTY HAWK     CLEAR     80  79  99 CALM      29.93R
MANTEO           N/A     80  77  91 NE5       29.94S

$$

NCZ045>047-081-094-103-104-300300-
CENTRAL COAST

CITY           SKY/WX    TMP DP  RH WIND       PRES   REMARKS
FRISCO         CLOUDY    81  74  79 NW9G17    29.93S

$$

NCZ095-097-098-100-101-300300-
SOUTHERN COAST

CITY           SKY/WX    TMP DP  RH WIND       PRES   REMARKS
BEAUFORT       MOCLDY    84  80  88 SW7       29.95R
CEDAR ISLAND   NOT AVBL
JACKSONVILLE   PTCLDY    83  75  77 CALM      29.94R
PINEY ISLAND   NOT AVBL
WILMINGTON     CLEAR     84  77  79 SW8       29.95R


$$

NCZ011>013-027>030-043-044-078>080-089-090>093-098-300300-
COASTAL PLAIN

CITY           SKY/WX    TMP DP  RH WIND       PRES   REMARKS
AHOSKIE        CLEAR     76  74  96 CALM      29.95R
CLINTON        CLEAR     80  74  81 CALM      29.95R
ELIZABETHTOWN  CLEAR     85  75  70 CALM      29.94R
GOLDSBORO      CLEAR     82  74  76 CALM      29.94R
GREENVILLE     CLEAR     81  77  89 CALM      29.97R
HAVELOCK       CLEAR     83  77  82 CALM      29.95R
KENANSVILLE    NOT AVBL
KINSTON        NOT AVBL
NEW BERN       CLEAR     81  75  82 CALM      29.96R
RICHLANDS      CLEAR     79  74  84 S3        29.95R
ROCKY MOUNT    CLEAR     78  75  90 CALM      29.95R
WASHINGTON     CLEAR     79  76  88 CALM      29.95R
WHITEVILLE     PTCLDY    83  78  84 CALM      29.94R

$$

AMZ130-135-150-152-154-156-158-170-250-252-270-ANZ085-086-088-633-658-670-300300-
MARINE OBSERVATIONS

STATION/POSITION TIME  TEMP    WIND        PRES    WAVE   SWELL
                       AIR SEA DIR/SP/G            HT/PER HT/PER
                 (UTC) (F)     (DEG/KT/KT) (MB)    (FT/S) (FT/S)
CHESAPEAKE LIGHT NOT AVBL
64 E VA BEACH    0150   81 83   10/  8/ 10 1013.2    3/ 5   2/ 5
DUCK             0100      75              1012.8
2 E DUCK         0211      79                N/A     1/14
OREGON INLET     0100      80              1013.0
13E OREGON INLT  0200      79                N/A     3/ 5   2/ 5
HATTERAS CG      0100      84              1013.2
DIAMOND BUOY     0150   85 85  240/ 17/ 19 1013.1    4/ 5   2/ 8
CAPE LOOKOUT     0200   84     250/ 10/ 13 1013.8
BEAUFORT LAB     0100      83              1012.6
30 SE NEW RVR IN 0208   85 85  240/ 16/ 19 1014.2
30 SE NEW RVR IN 0125      85                N/A     5/ 6
27 SE WRIGHTSVLE 0208   85 84  230/ 14/ 17 1014.6
5 SE WRIGHTSVLE  0208   82 80  250/  6/  8 1015.1
225 S CAPE HAT   0150   85 85  210/ 10/ 12 1016.0    4/ 6   3/ 6
41 SE CHARLESTON 0150   86 86  210/ 17/ 19 1014.0    3/ 5   2/ 8

$$




USA.gov is the U.S. government's official web portal to all federal, state and local government web resources and services.